sat.trackr.live / text

‹ back to catalog

STARLINK-11611 [DTC]

NORAD 63138 · 2025-043G

PAYLOAD ACTIVE UNKNOWN

§ Identity

Operator
Country
US
Launch date
2025-03-03
Launch site
AFETR
Launch vehicle
Mass (kg)
RCS (m²)

Purposes: comms

External: N2YO · Heavens-Above · Gunter

§ Orbital elements

Epoch: 2026-09-20T18:20:35.059488Z

Period
91.67 min
Inclination
43.0001°
Eccentricity
0.0001378
Mean motion
15.70857421 rev/d
Perigee alt
355.5 km
Apogee alt
357.4 km
Semi-major
6,734.6 km
B*
1.0724e-3
RAAN
154.7503°
Arg perigee
273.8679°
Mean anomaly
86.2031°
Rev number
9,015

§ Raw data

STARLINK-11611 [DTC]1 63138U 25043G   26263.76429467  .00139587  00000+0  10724-2 0  99972 63138  43.0001 154.7503 0001378 273.8679  86.2031 15.70857421 90152

JSON: /api/v1/satellites/63138 · /tle

For live sub-satellite position, see the globe view (requires WebGL).

§ Visibility from observer

Set your observer location to see the next 7 days of passes ≥ 10°. The values pass through the URL so the page stays shareable.

No JS? Fill the form by hand. The geolocation button needs JavaScript.